This is the latest recevied weather packets stored in our database for station/object IZ3MEZ-13. If no packets are shown the sender has not sent any weather packets the latest 10 day(s).
| Time | Temp. | Humidity | Pressure | Rain* | Wind** | Luminosity | Snow |
|---|---|---|---|---|---|---|---|
| 1777985419 | 15.56° C | 84% | 1015.4 hPa | 0 mm | - | 48 W/m² | - |
| 1777984824 | 15.56° C | 83% | 1015.5 hPa | 0 mm | - | 40 W/m² | - |
| 1777984222 | 16.11° C | 83% | 1015.6 hPa | 0 mm | - | 41 W/m² | - |
| 1777983619 | 16.11° C | 82% | 1015.7 hPa | 0 mm | - | 52 W/m² | - |
| 1777983020 | 16.11° C | 81% | 1015.6 hPa | 0 mm | - | 28 W/m² | - |
| 1777982727 | 16.67° C | 80% | 1015.6 hPa | 0 mm | - | 22 W/m² | - |
| 1777981523 | 17.78° C | 78% | 1015.6 hPa | 0 mm | - | 147 W/m² | - |
| 1777980919 | 17.78° C | 79% | 1015.5 hPa | 0 mm | - | 211 W/m² | - |
| 1777980320 | 17.22° C | 79% | 1015.6 hPa | 0 mm | - | 193 W/m² | - |
| 1777979716 | 17.78° C | 79% | 1015.7 hPa | 0 mm | - | 134 W/m² | - |
| 1777978520 | 17.78° C | 79% | 1015.5 hPa | 0 mm | - | 209 W/m² | - |
| 1777977917 | 17.22° C | 78% | 1015.8 hPa | 0 mm | - | 165 W/m² | - |
| 1777977317 | 17.78° C | 78% | 1016 hPa | 0 mm | - | 100 W/m² | - |
| 1777976722 | 17.78° C | 78% | 1016.2 hPa | 0 mm | - | 128 W/m² | - |
| 1777976119 | 17.22° C | 79% | 1016.1 hPa | 0.25 mm | - | 179 W/m² | - |
| 1777975517 | 17.22° C | 80% | 1016.2 hPa | 0.51 mm | - | 110 W/m² | - |
| 1777974918 | 17.22° C | 81% | 1016 hPa | 0.51 mm | - | 144 W/m² | - |
| 1777973729 | 17.22° C | 82% | 1015.9 hPa | 0.51 mm | - | 143 W/m² | - |
| 1777973122 | 16.67° C | 82% | 1016 hPa | 0.51 mm | - | 154 W/m² | - |
| 1777972519 | 16.67° C | 81% | 1016.1 hPa | 0.25 mm | - | 98 W/m² | - |
| 1777971921 | 16.67° C | 79% | 1016 hPa | 0 mm | - | 68 W/m² | - |
| 1777971326 | 16.67° C | 79% | 1015.9 hPa | 0 mm | - | 82 W/m² | - |
| 1777970717 | 16.67° C | 79% | 1015.9 hPa | 0 mm | - | 87 W/m² | - |
| 1777970122 | 16.67° C | 79% | 1015.9 hPa | 0 mm | - | 67 W/m² | - |
| 1777969518 | 16.67° C | 79% | 1015.7 hPa | 0 mm | - | 62 W/m² | - |
* Rain latest hour (hover to see other rain measurements)
** Current wind speed in m/s (hover to see current wind gust speed)